User: anonymous   Login
Location: Pianadetto
(44.4000°N, 10.1000°E)
Time: 20:08:18
(UTC+00:00)
Language:

SAR-Lupe-2 - Orbit

View from above orbital plane
View from above orbital plane
View from above satellite
View from above satellite

Ground track
Ground track

The orbit data is extracted from the following two-line orbital elements,

1 31797U 07030A   22181.05905217 0.00002000  00000-0  73019-4 0    09
2 31797  98.1246 126.5182 0001001 344.5982  15.4017 15.28155921    08
Epoch (UTC): 30 June 2022 01:25:02
Eccentricity: 0.0001001
inclination: 98.1246°
perigee height: 480 km
apogee height: 482 km
right ascension of ascending node: 126.5182°
argument of perigee: 344.5982°
revolutions per day: 15.28155921
mean anomaly at epoch: 15.4017°
orbit number at epoch: 0

The dashed part of the orbit path shows where the satellite is in the earth's shadow,  

DLR